Miscellaneous Local Product
Issued by NWS Hastings, NE

Home | Current Version | Previous Version | Graphics & Text | Print | Product List | Glossary On
Versions: 1 2 3 4 5 6 7 8 9 10 11 12 13 14 15 16 17 18 19 20 21 22 23 24 25 26 27 28 29 30 31 32 33 34 35 36 37 38 39 40 41 42 43 44 45 46 47 48 49 50
000
AXUS43 KGID 250802
MISGRI

GID CWA HOURLY WEATHER ROUNDUP
NATIONAL WEATHER SERVICE HASTINGS NE
300 AM CDT MON SEP 25 2017

NOTE: "FAIR" INDICATES FEW OR NO CLOUDS BELOW 12,000 FEET WITH NO
SIGNIFICANT WEATHER AND/OR OBSTRUCTIONS TO VISIBILITY.

...SOUTH CENTRAL NEBRASKA...

CITY           SKY/WX    TMP DP  RH WIND       PRES   REMARKS
GRAND ISLAND   RAIN      54  54 100 N8        30.00F FOG
HASTINGS       RAIN      54  52  93 NE15      29.97F FOG
KEARNEY        LGT RAIN  53  51  93 NE14G22   29.96F
ORD            LGT RAIN  52  49  89 NE17G24   29.97F
YORK           CLOUDY    55  55 100 N13G21    29.96F
AURORA         CLOUDY    54  54  99 N10       29.99S
LEXINGTON      RAIN      53  50  90 E17       29.98F
HOLDREGE       TSTM      53  52  95 N8G22     29.98R
HEBRON         CLOUDY    63  62  96 N8        29.93S

...NEBRASKA PANHANDLE...

CITY           SKY/WX    TMP DP  RH WIND       PRES   REMARKS
CHADRON        RAIN      45  42  89 N6        30.15R FOG
ALLIANCE       CLOUDY    44  42  93 N12       30.11R
SCOTTSBLUFF    CLOUDY    46  43  89 N6        30.12S
SIDNEY         CLOUDY    46  45  96 N13       30.10R FOG

...WESTERN AND NORTH CENTRAL NEBRASKA...

CITY           SKY/WX    TMP DP  RH WIND       PRES   REMARKS
VALENTINE      CLOUDY    49  46  90 NE15      30.07S
AINSWORTH      LGT RAIN  48  48  98 NE10      30.05F
ONEILL         RAIN      51  51 100 NE10      30.05F
BROKEN BOW     HVY RAIN  51  51 100 NE13      29.99S
IMPERIAL       LGT RAIN  50  47  89 N7        30.02S
NORTH PLATTE   LGT RAIN  51  49  92 W16       30.07R
MCCOOK         CLOUDY    53  52  96 NW13      30.00R

...EASTERN NEBRASKA...

CITY           SKY/WX    TMP DP  RH WIND       PRES   REMARKS
NORFOLK        LGT RAIN  54  53  97 N12       30.00S
SO SIOUX CITY  LGT RAIN  57  57 100 NW7       29.98F
TEKAMAH        LGT RAIN  59  57  93 N12       29.94F
COLUMBUS       CLOUDY    56  54  93 N10       29.99F
ALBION         LGT RAIN  54  52  95 N10       29.99F
OMAHA EPPLEY   LGT RAIN  64  61  90 N7        29.90F
OFFUTT AFB     CLOUDY    64  62  95 NE8       29.89F
MILLARD        CLOUDY    66  64  95 CALM      29.90F
LINCOLN        LGT RAIN  62  61  96 N10       29.92S
NEBRASKA CITY  CLOUDY    65  65 100 E5        29.91F
BEATRICE       CLOUDY    68  66  94 CALM      29.90S
FALLS CITY     CLEAR     68  64  87 NE7       29.91S

...NORTHERN KANSAS...

CITY           SKY/WX    TMP DP  RH WIND       PRES   REMARKS
GOODLAND       CLOUDY    52  52 100 N12       29.98F
HILL CITY      LGT RAIN  58  58 100 NW6       29.94R FOG
NORTON         LGT RAIN  55  52  88 N13       29.93F
PHILLIPSBURG   CLOUDY    57  57 100 NE8       29.91F THUNDER
RUSSELL        CLOUDY    69  65  86 CALM      29.87F
CONCORDIA      MOCLDY    65  65 100 E5        29.89S
SALINA         CLOUDY    73  65  75 SE9       29.87F
TOPEKA         CLEAR     71  68  90 E3        29.91R



USA.gov is the U.S. government's official web portal to all federal, state and local government web resources and services.